TimeEDT,TemperatureF,Dew PointF,Humidity,Sea Level PressureIn,VisibilityMPH,Wind Direction,Wind SpeedMPH,Gust SpeedMPH,PrecipitationIn,Events,Conditions,WindDirDegrees,DateUTC
12:17 AM,56.7,56.7,100,30.20,10.0,NE,16.1,-,0.03,Rain,Light Rain,50,2013-10-10 04:17:00
12:37 AM,56.7,56.7,100,30.19,10.0,NE,11.5,19.6,0.05,Rain,Rain,50,2013-10-10 04:37:00
12:58 AM,56.7,56.7,100,30.19,7.0,ENE,15.0,21.9,0.10,Rain,Rain,60,2013-10-10 04:58:00
1:18 AM,56.7,56.7,100,30.18,7.0,NE,13.8,20.7,0.05,Rain,Rain,50,2013-10-10 05:18:00
1:38 AM,56.7,56.7,100,30.18,7.0,ENE,13.8,21.9,0.10,Rain,Rain,60,2013-10-10 05:38:00
1:58 AM,56.7,56.7,100,30.16,7.0,NE,16.1,23.0,0.17,Rain,Rain,50,2013-10-10 05:58:00
2:18 AM,56.8,56.8,100,30.15,10.0,ENE,18.4,26.5,0.02,Rain,Light Rain,60,2013-10-10 06:18:00
2:38 AM,56.8,56.8,100,30.15,10.0,ENE,16.1,21.9,0.04,Rain,Light Rain,60,2013-10-10 06:38:00
2:58 AM,57.2,57.2,100,30.15,10.0,ENE,13.8,23.0,0.05,Rain,Light Rain,60,2013-10-10 06:58:00
3:18 AM,57.2,57.2,100,30.15,7.0,ENE,13.8,20.7,0.04,Rain,Light Rain,60,2013-10-10 07:18:00
3:38 AM,57.2,57.2,100,30.14,5.0,ENE,13.8,19.6,0.10,Rain,Rain,60,2013-10-10 07:38:00
3:58 AM,57.2,57.2,100,30.14,7.0,ENE,15.0,20.7,0.14,Rain,Rain,60,2013-10-10 07:58:00
4:18 AM,57.2,57.2,100,30.12,5.0,NE,18.4,23.0,0.05,Rain,Light Rain,50,2013-10-10 08:18:00
4:38 AM,57.2,57.2,100,30.12,4.0,NE,18.4,25.3,0.14,Rain,Rain,50,2013-10-10 08:38:00
4:58 AM,57.2,57.2,100,30.12,10.0,NE,18.4,21.9,0.16,Rain,Rain,50,2013-10-10 08:58:00
5:18 AM,57.4,57.4,100,30.12,10.0,NE,16.1,24.2,0.01,Rain,Light Rain,50,2013-10-10 09:18:00
5:38 AM,57.6,57.6,100,30.11,7.0,NE,17.3,24.2,0.03,Rain,Rain,50,2013-10-10 09:38:00
5:55 AM,57.2,57.2,100,30.11,5.0,NE,16.1,24.2,N/A,Rain,Light Rain,40,2013-10-10 09:55:00
5:58 AM,57.6,57.6,100,30.11,5.0,NE,16.1,24.2,0.09,Rain,Rain,50,2013-10-10 09:58:00
6:18 AM,57.6,57.6,100,30.11,10.0,ENE,15.0,19.6,0.01,Rain,Rain,60,2013-10-10 10:18:00
6:38 AM,57.6,57.6,100,30.11,4.0,ENE,16.1,20.7,0.16,Rain,Heavy Rain,60,2013-10-10 10:38:00
6:46 AM,57.7,57.7,100,30.11,5.0,ENE,13.8,23.0,0.18,Rain,Light Rain,60,2013-10-10 10:46:00
6:53 AM,57.2,57.2,100,30.11,7.0,NE,15.0,20.7,N/A,,Drizzle,50,2013-10-10 10:53:00
7:53 AM,57.2,57.2,100,30.11,6.0,NE,15.0,21.9,N/A,,Drizzle,50,2013-10-10 11:53:00
8:53 AM,57.2,57.2,100,30.11,7.0,NE,11.5,20.7,N/A,,Drizzle,50,2013-10-10 12:53:00
9:53 AM,59.0,59.0,100,30.11,6.0,NE,13.8,23.0,N/A,,Drizzle,50,2013-10-10 13:53:00
10:53 AM,59.0,59.0,100,30.09,5.0,NE,11.5,23.0,N/A,,Drizzle,50,2013-10-10 14:53:00
11:53 AM,59.0,59.0,100,30.10,4.0,NE,11.5,19.6,N/A,,Overcast,40,2013-10-10 15:53:00
12:53 PM,62.6,62.6,100,30.06,4.0,NE,11.5,18.4,N/A,,Drizzle,40,2013-10-10 16:53:00
1:50 PM,62.6,62.6,100,30.06,2.0,NNE,10.4,-,N/A,,Drizzle,20,2013-10-10 17:50:00
2:47 PM,62.6,62.6,100,30.04,3.0,NE,10.4,17.3,N/A,,Light Drizzle,40,2013-10-10 18:47:00
3:54 PM,62.6,62.6,100,30.03,3.0,NE,12.7,-,N/A,,Drizzle,40,2013-10-10 19:54:00
4:50 PM,62.6,62.6,100,30.01,2.0,NE,15.0,20.7,N/A,,Drizzle,50,2013-10-10 20:50:00
5:50 PM,62.6,62.6,100,30.01,2.0,NNE,11.5,17.3,N/A,,Drizzle,30,2013-10-10 21:50:00
6:50 PM,60.8,60.8,100,30.01,2.0,NNE,11.5,-,N/A,,Overcast,30,2013-10-10 22:50:00
7:55 PM,62.6,62.6,100,30.00,3.0,NNE,8.1,-,N/A,Rain,Light Rain,30,2013-10-10 23:55:00
8:45 PM,62.6,62.6,100,30.00,2.0,NNE,8.1,-,N/A,,Light Drizzle,20,2013-10-11 00:45:00
10:00 PM,61.7,61.7,100,30.00,5.0,NNE,6.9,-,N/A,Rain,Rain,30,2013-10-11 02:00:00
10:20 PM,61.9,61.9,100,29.99,5.0,NNE,8.1,-,0.01,,Overcast,30,2013-10-11 02:20:00
10:40 PM,61.9,61.9,100,29.99,5.0,NNE,10.4,-,0.01,,Overcast,30,2013-10-11 02:40:00
11:00 PM,62.1,62.1,100,29.99,7.0,NNE,8.1,-,N/A,,Drizzle,20,2013-10-11 03:00:00
11:20 PM,62.2,62.2,100,29.98,5.0,NNE,6.9,-,N/A,,Light Drizzle,30,2013-10-11 03:20:00
11:40 PM,62.4,62.4,100,29.98,4.0,NNE,8.1,-,0.02,Rain,Rain,30,2013-10-11 03:40:00